Regional Weather Roundup
Issued by NWS

Home | Current Version | Previous Version | Text Only | Print | Product List | Glossary On
Versions: 1 2 3 4 5 6 7 8 9 10 11 12 13 14 15 16 17 18 19 20 21 22 23 24 25 26 27 28 29 30 31 32 33 34 35 36 37 38 39 40 41 42 43 44 45 46
000
ASUS42 KFFC 250603
RWRGA
WEATHER ROUNDUP FOR GEORGIA
NATIONAL WEATHER SERVICE PEACHTREE CITY GA
200 AM EDT FRI JUL 25 2014

NOTE: "FAIR" INDICATES FEW OR NO CLOUDS BELOW 12,000 FEET WITH NO
SIGNIFICANT WEATHER AND/OR OBSTRUCTIONS TO VISIBILITY.

* = USE WITH CAUTION. THE STATIONS MARKED WITH AN ASTERISK MAY NOT
REPORT WEATHER SUCH AS PRECIPITATION, FOG, OR THUNDER AND ARE NOT
QUALITY CONTROLLED BY NWS.

THE REMARK "TC" DENOTES TEMPERATURE READING IN DEGREES CELSIUS.

GAZ001>058-250700-
NORTH GEORGIA

CITY           SKY/WX    TMP DP  RH WIND       PRES   REMARKS
ATLANTA        MOCLDY    73  70  90 W6        30.00S
6HR MIN TEMP:  72; 6HR MAX TEMP:  75;

ATHENS         CLEAR     73  70  90 CALM      29.99R
6HR MIN TEMP:  73; 6HR MAX TEMP:  81;

CHAMBLEE       CLEAR     72  69  90 NW3       30.00F
6HR MIN TEMP:  72; 6HR MAX TEMP:  78;

PEACHTREE CITY CLOUDY    72  71  97 CALM      30.02S FOG
6HR MIN TEMP:  72; 6HR MAX TEMP:  74; 6HR PCP:  0.04;

ROME           MOCLDY    73  68  84 N5        30.01R
6HR MIN TEMP:  73; 6HR MAX TEMP:  84;

WEST ATLANTA   CLEAR     72  70  93 CALM      30.00S
6HR MIN TEMP:  72; 6HR MAX TEMP:  77;

GAINESVILLE    CLEAR     73  71  93 W6        30.03F
6HR MIN TEMP:  72; 6HR MAX TEMP:  79;

CARTERSVILLE   CLEAR     72  68  87 CALM      30.02R
6HR MIN TEMP:  72; 6HR MAX TEMP:  82;



CITY           SKY/WX    TMP DP  RH WIND       PRES   REMARKS
DALTON*        CLEAR     70  66  88 N3        30.02R
MARIETTA       CLEAR     72  71  99 W5        30.01F
$$

GAZ059>098-102>109-250700-
CENTRAL GEORGIA

CITY           SKY/WX    TMP DP  RH WIND       PRES   REMARKS
AUGUSTA-BUSH   PTCLDY    74  72  93 CALM      29.94F
6HR MIN TEMP:  74; 6HR MAX TEMP:  87;

AUGUSTA-DANIEL CLEAR     80  71  74 NW5       29.97S
6HR MIN TEMP:  80; 6HR MAX TEMP:  88; 6HR PCP: TRACE;

COLUMBUS       PTCLDY    77  72  84 S3        29.99S
6HR MIN TEMP:  77; 6HR MAX TEMP:  85;

MACON          CLEAR     75  73  93 W3        29.98S
6HR MIN TEMP:  75; 6HR MAX TEMP:  84;



CITY           SKY/WX    TMP DP  RH WIND       PRES   REMARKS
LAGRANGE*      CLOUDY    77  76  96 CALM      30.01S
SYLVANIA*      PTCLDY    79  75  88 SW3       29.98S
MILLEDGEVILLE* FOG       61  61 100 CALM      29.98S VSB 1/4
$$

GAZ099>101-110>166-250700-
SOUTH GEORGIA

CITY           SKY/WX    TMP DP  RH WIND       PRES   REMARKS
SAVANNAH       MOCLDY    80  71  74 SW7       29.98R
6HR MIN TEMP:  80; 6HR MAX TEMP:  90;

VALDOSTA       CLEAR     80  73  79 CALM      30.00F
6HR MIN TEMP:  78; 6HR MAX TEMP:  84;

ALMA           CLEAR     76  73  91 W6        29.99F
6HR MIN TEMP:  76; 6HR MAX TEMP:  85;

ST SIMONS      PTCLDY    80  73  79 W8        30.00R
6HR MIN TEMP:  80; 6HR MAX TEMP:  85;

FT STEWART     CLEAR     79  72  79 SW7       29.98R
ALBANY         PTCLDY    77  73  87 SW6       30.01F
HUNTER AFB     PTCLDY    79  72  78 W8        29.96S
MOODY AFB      CLEAR     78  78  99 SW8       30.00S
BRUNSWICK      PTCLDY    79  72  78 CALM      30.00R


CITY           SKY/WX    TMP DP  RH WIND       PRES   REMARKS
BAINBRIDGE*    CLEAR     79  77  94 CALM      30.01S
MOULTRIE*      PTCLDY    77  73  88 SW3       30.02F
VIDALIA*         N/A     79  73  83 SW6       29.99F
WAYCROSS*      CLEAR     79  77  94 W3        30.00S
DOUGLAS*       CLEAR     77  73  88 SW5       30.02S
$$



USA.gov is the U.S. government's official web portal to all federal, state and local government web resources and services.